COSMOS 1275 DEB, 12733

Orbit data source: Space-Track

COSMOS 1275 DEB, 12733 is space debris in LEO originally from a launch on Thu, 04 Jun 1981 UTC launched from the Plesetsk Missile And Space Complex (PKMTR). Debris objects in space refer to the collection of defunct objects orbiting the Earth. Examples of debris include non-operational satellites, rocket bodies, and fragments generated from explosions, collisions, or faulty payload assembly.

Loading next visibility...
Identifier
12733, 1981-053CA
Orbit
LEO
Country
Flag of CISCIS
Related business
Manufacturer
Unknown
Mission
Spacecraft
Bus & Motor
Unknown
Mass
Unknown
Launch date (UTC)
1981-06-04 (44 years ago)
Launch vehicle
Unknown
Launch site
Plesetsk Missile And Space Complex (PKMTR)
Object type
Payload
Rocket body
Debris
Shape & HBR
Unknown shape, 0.1 m
Radar Cross Section
Small (<0.1 m²)

Expand to show TLE details & history
Last TLE update: 12 hours ago

TLE from 12 hours ago
0 COSMOS 1275 DEB
1 12733U 81053CA  25298.89414267  .00007025  00000-0  23641-2 0  9992
2 12733  82.8540 101.0022 0019019 266.1424  93.7591 14.36901467262809
Epoch: 2025-10-25T21:27Z
TLE epoch observation values (Epoch: 2025-10-25T21:27:33.926Z)
Latitude
-0.00012°
Longitude
104.59268°
Altitude
772.655 km
Speed
7.467 km/s
True Right ascension
06h 44m 00s
True Declination
0° 00' 00"
Sunlit
Object was in daylight at epoch
Visualization orbit readout
Latitude
Unknown
Longitude
Unknown
Altitude
Unknown
Speed
Unknown
Apparent Right ascension
Unknown
Apparent Declination
Unknown
Sunlit
N/A
Visualization observer readout
Local Sidereal Time
04:59:22
Azimuth
Unknown
Elevation
Unknown
Doppler factor
Unknown
Orbital elements
Apogee altitude
779.409 km
Perigee altitude
752.234 km
Semi-major axis
7,143.959 km
Eccentricity
0.0019
Inclination
82.854°
RAAN
101.0022°
Arg. of periapsis
266.1424°
True anomaly
93.97654°
Mean anomaly
93.7591°
Eccentric anomaly
93.86782°
Mean motion
3.59447 °/min
Orbital period
100.15 mins
BSTAR
0.0023641
Loading maneuver chart data...
Computing Atmospheric mass density...

Documentation

Showing up to 5 results
|